This is the latest recevied weather packets stored in our database for station/object K4KMJ. If no packets are shown the sender has not sent any weather packets the latest 10 day(s).
| Time | Temp. | Humidity | Pressure | Rain* | Wind** | Luminosity | Snow |
|---|---|---|---|---|---|---|---|
| 1788554648 | 31.11° C | 86% | 1015.5 hPa | 0 mm | - | 338 W/m² | - |
| 1788554344 | 31.11° C | 86% | 1015.5 hPa | 0 mm | - | 130 W/m² | - |
| 1788554041 | 31.11° C | 86% | 1015.3 hPa | 0 mm | - | 102 W/m² | - |
| 1788553736 | 31.67° C | 85% | 1015.3 hPa | 0 mm | - | 124 W/m² | - |
| 1788553432 | 31.67° C | 84% | 1015.1 hPa | 0 mm | - | 246 W/m² | - |
| 1788553128 | 31.67° C | 82% | 1015.2 hPa | 0 mm | - | 269 W/m² | - |
| 1788552828 | 32.78° C | 75% | 1015.3 hPa | 0 mm | - | 177 W/m² | - |
| 1788552523 | 33.33° C | 73% | 1015.2 hPa | 0 mm | - | 290 W/m² | - |
| 1788552221 | 33.33° C | 72% | 1015.4 hPa | 0 mm | - | 339 W/m² | - |
| 1788551916 | 33.33° C | 71% | 1015.6 hPa | 0 mm | - | 374 W/m² | - |
| 1788551614 | 33.33° C | 72% | 1015.5 hPa | 0 mm | - | 376 W/m² | - |
| 1788551324 | 33.33° C | 71% | 1015.7 hPa | 0 mm | - | 351 W/m² | - |
| 1788551009 | 33.33° C | 73% | 1015.6 hPa | 0 mm | - | 348 W/m² | - |
| 1788550704 | 32.78° C | 76% | 1015.7 hPa | 0 mm | - | 370 W/m² | - |
| 1788550400 | 32.78° C | 75% | 1015.9 hPa | 0 mm | - | 185 W/m² | - |
| 1788550095 | 32.78° C | 75% | 1016 hPa | 0 mm | - | 252 W/m² | - |
| 1788549790 | 32.78° C | 75% | 1016 hPa | 0 mm | - | 223 W/m² | - |
| 1788549487 | 33.33° C | 74% | 1015.8 hPa | 0 mm | - | 208 W/m² | - |
| 1788549183 | 33.33° C | 73% | 1016 hPa | 0 mm | - | 322 W/m² | - |
| 1788548879 | 33.89° C | 73% | 1016.2 hPa | 0 mm | - | 530 W/m² | - |
| 1788548575 | 33.89° C | 72% | 1016.2 hPa | 0 mm | - | 176 W/m² | - |
| 1788548271 | 34.44° C | 71% | 1016.4 hPa | 0 mm | - | 225 W/m² | - |
| 1788547966 | 34.44° C | 71% | 1016.5 hPa | 0 mm | - | 663 W/m² | - |
| 1788547664 | 33.33° C | 75% | 1016.5 hPa | 0 mm | - | 837 W/m² | - |
| 1788547361 | 33.33° C | 74% | 1016.4 hPa | 0 mm | - | 866 W/m² | - |
* Rain latest hour (hover to see other rain measurements)
** Current wind speed in m/s (hover to see current wind gust speed)